(150) Nuwa
ephemeris date magn radius delta ra dec elong phase
Today7 Sep 202514.02.782 AU2.775 AU05h35m+21°58'79.9°20.9°
Opposition16 Dec 202512.52.901 AU1.918 AU05h36m+20°29'177.2°1.0°
(150) Nuwa - 2025-09-07
astro.vanbuitenen.nl


 
-1 year
-1 month
-1 day
Now
+1 day
+1 month
+1 year

The interactive orbit chart above shows the body's path through the solar system and its position at the given date. Green and blue lines are shown perpendicular to the ecliptic plane: Green if the path is above the ecliptic plane, blue if it is below. (Left-click and drag to rotate the view; Right-click and drag to move the view; Use scroll wheel to zoom in our out.)

The orbital elements of Nuwa are:

            e (Eccentricity)                : 0.1235829
            a (Semimajor axis)              : 2.9827844
            i (Inclination)                 : 2.20229
            Ω (Longitude of ascending node) : 206.10510
            ω (Argument of perihelion)      : 154.22610
            M (Mean anomaly)                : 27.13354
            Epoch                           : 2025 May 05

            L (Longitude of perihelion)     : 180.34777
            B (Latitude of perihelion)      : 0.95741
            P (Orbital period in years)     : 5.15            
        

The light curve chart below shows the estimated development of the minor planet's magnitude.


The all-sky chart below shows the path of the minor planet over the same period as the light curve. The current position is marked yellow.





The following chart shows the path of the minor planet in the next few days. The field of view is optimized for (~10x50) binoculars and finderscopes. A more printer-friendly version of the same chart can be found below.




Ephemerides:
Date       Time       RA (2000)    DEC (2000)    delta   radius  elong  phase   PA    magn
2025-09-07 00:00 UT   05 35 40.0   +21 58 49     2.775    2.782   79.9   20.9   267   14.0 
2025-09-07 22:15 UT   05 36 40.3   +21 58 40     2.764    2.783   80.6   20.9   267   14.0 
2025-09-08 00:00 UT   05 36 45.0   +21 58 39     2.763    2.783   80.6   20.9   267   14.0 
2025-09-09 00:00 UT   05 37 49.2   +21 58 27     2.751    2.784   81.4   21.0   268   14.0 
2025-09-10 00:00 UT   05 38 52.4   +21 58 12     2.739    2.785   82.1   21.0   268   14.0 
2025-09-11 00:00 UT   05 39 54.7   +21 57 55     2.727    2.786   82.8   21.0   268   14.0 
2025-09-12 00:00 UT   05 40 56.1   +21 57 35     2.715    2.788   83.6   21.0   268   14.0 
2025-09-13 00:00 UT   05 41 56.4   +21 57 13     2.702    2.789   84.3   21.0   268   14.0 
2025-09-14 00:00 UT   05 42 55.9   +21 56 49     2.690    2.790   85.0   21.1   268   14.0 
2025-09-15 00:00 UT   05 43 54.3   +21 56 22     2.678    2.791   85.8   21.1   268   14.0 
2025-09-16 00:00 UT   05 44 51.7   +21 55 54     2.666    2.792   86.6   21.1   268   14.0 
2025-09-17 00:00 UT   05 45 48.0   +21 55 23     2.654    2.793   87.3   21.1   269   14.0 
2025-09-18 00:00 UT   05 46 43.3   +21 54 50     2.641    2.794   88.1   21.1   269   14.0 
2025-09-19 00:00 UT   05 47 37.6   +21 54 15     2.629    2.795   88.8   21.1   269   13.9 
2025-09-20 00:00 UT   05 48 30.7   +21 53 38     2.617    2.797   89.6   21.0   269   13.9 
2025-09-21 00:00 UT   05 49 22.7   +21 52 60     2.604    2.798   90.4   21.0   269   13.9 
2025-09-22 00:00 UT   05 50 13.7   +21 52 20     2.592    2.799   91.2   21.0   269   13.9 
2025-09-23 00:00 UT   05 51 03.4   +21 51 37     2.580    2.800   92.0   21.0   269   13.9 
2025-09-24 00:00 UT   05 51 52.1   +21 50 54     2.568    2.801   92.7   21.0   269   13.9 
2025-09-25 00:00 UT   05 52 39.5   +21 50 08     2.555    2.802   93.5   20.9   269   13.9 
2025-09-26 00:00 UT   05 53 25.8   +21 49 22     2.543    2.803   94.3   20.9   269   13.9 
2025-09-27 00:00 UT   05 54 10.8   +21 48 33     2.531    2.804   95.1   20.9   270   13.9 
2025-09-28 00:00 UT   05 54 54.6   +21 47 44     2.519    2.806   96.0   20.8   270   13.9 
2025-09-29 00:00 UT   05 55 37.2   +21 46 53     2.506    2.807   96.8   20.8   270   13.8 
2025-09-30 00:00 UT   05 56 18.6   +21 46 01     2.494    2.808   97.6   20.7   270   13.8 
2025-10-01 00:00 UT   05 56 58.7   +21 45 07     2.482    2.809   98.4   20.6   270   13.8 
2025-10-02 00:00 UT   05 57 37.5   +21 44 13     2.470    2.810   99.3   20.6   270   13.8 
2025-10-03 00:00 UT   05 58 15.0   +21 43 17     2.458    2.811  100.1   20.5   270   13.8 
2025-10-04 00:00 UT   05 58 51.2   +21 42 21     2.446    2.813  100.9   20.4   270   13.8 
2025-10-05 00:00 UT   05 59 26.0   +21 41 23     2.434    2.814  101.8   20.4   270   13.8 
2025-10-06 00:00 UT   05 59 59.5   +21 40 25     2.422    2.815  102.6   20.3   270   13.8 
2025-10-07 00:00 UT   06 00 31.7   +21 39 26     2.410    2.816  103.5   20.2   270   13.7 


    Terminology:
            
    delta:  distance between minor planet and earth in AU
    radius: distance between minor planet and sun in AU
    magn:   magnitude (brightness) estimate    
    ra:     right ascension in hours (24h = 360deg)
    dec:    declination in degrees
    elong:  elongation in degrees (angle sun-earth-minor planet)    
    phase:  phase angle in degrees (angle sun-minor planet-earth)        
    AU:     Astronomical Unit (mean distance between earth and sun: 149597870.7 km
    

Orbital elements provided by the MPC (Minor Planet Center).
Calculations by a modified version of AAPlus, a C# implementation of the AA+ project by PJ Naughter from the algorithms presented in the book "Astronomical Algorithms" by Jean Meeus.
NGC2000 dso catalog and star labels from VizieR as provided by the Strasbourg astronomical Data Center.
Tycho2 catalog from the ESO archive.